Location: Saluda
(35.2377°N, 82.3468°W)
Time: 20:13:47
(UTC+00:00)

Vanguard 3 - Pass Details

Date: 09 October 2022
Orbit: 509 x 3255 km, 33.3° (Epoch: 01 December)

Event Time Altitude Azimuth Distance (km) Brightness Sun altitude
Rises 19:11:02 0° 260° (W) 3,918 11.2 40.3°
Reaches altitude 10° 19:15:06 10° 236° (SW) 3,433 11.5 39.8°
Maximum altitude 19:19:25 14° 206° (SSW) 3,586 11.7 39.2°
Drops below altitude 10° 19:24:49 10° 179° (S) 4,501 11.6 38.5°
Sets 19:31:58 0° 159° (SSE) 6,167 11.9 37.5°
